Location: Kermapucano
(48.0667°N, 3.3000°W)
Time: 20:55:15
(UTC+00:00)

Nadezhda 3 Rocket - Pass Details

Date: 29 November 2020
Orbit: 956 x 1000 km, 82.9° (Epoch: 27 January)

Event Time Altitude Azimuth Distance (km) Brightness Sun altitude
Rises 06:25:48 0° 347° (NNW) 3,718 6.7 -12.0°
Reaches altitude 10° 06:28:23 10° 344° (NNW) 2,760 6.0 -11.6°
Maximum altitude 06:34:33 56° 268° (W) 1,153 4.1 -10.6°
Drops below altitude 10° 06:40:35 10° 192° (SSW) 2,711 6.5 -9.7°
Sets 06:43:06 0° 188° (S) 3,647 7.2 -9.3°
